Date String (YYYY-MM-DD hh:mm:ss) UTC,Instrument flags,absolute air pressure of the measurement (hPa),sample flow rate (lpm),inlet stack bypass flow (lpm),air temperature of the measurement (°C),ambient temperature measured by the external sensor (°C),aerosol sample conditioner tube jacket temperature (°C),OPC LED temperature (°C),internal box temperature (°C),relative humidity of the measurement (%),span deviation,mass concentration of particles derived from Lorenz-Mie calculation of OPC scattering (μg/m³),mass concentration of particles derived from Lorenz-Mie calculation of OPC scattering (μg/m³),mass concentration of particles derived from Lorenz-Mie calculation of OPC scattering (μg/m³)
DateTimeUTC,F1_M11,P_M11,Q1_M11,Q2_M11,T1_M11,T2_M11,T3_M11,T4_M11,T5_M11,U1_M11,ZSPAN_M11,X0_M11,X2_M11,X1_M11
2024-05-21 20:00:00,SystemResetWarning,0824.3,5.00,000.00,028.3,027.5,000.0,036.7,030.0,018.7,0000.0,0005.57,0003.07,0002.36
2024-05-21 20:01:00,SystemResetWarning,0824.3,5.02,000.00,028.3,027.5,000.0,036.7,030.1,019.2,0000.0,0006.00,0003.06,0002.36
2024-05-21 20:02:00,SystemResetWarning,0824.3,5.00,000.00,028.3,027.5,000.0,036.7,030.1,018.7,0000.0,0006.43,0003.11,0002.38
2024-05-21 20:03:00,SystemResetWarning,0824.3,5.00,000.00,028.3,027.5,000.0,036.7,030.0,018.5,0000.0,0006.54,0003.11,0002.40
2024-05-21 20:04:00,SystemResetWarning,0824.3,4.99,000.00,028.3,027.5,000.0,036.7,030.0,019.2,0000.0,0006.71,0003.12,0002.41
2024-05-21 20:05:00,SystemResetWarning,0824.4,5.00,000.00,028.3,027.5,000.0,036.7,030.1,019.6,0000.0,0007.19,0003.17,0002.43
2024-05-21 20:06:00,SystemResetWarning,0824.3,5.01,000.00,028.3,027.5,000.0,036.7,030.1,018.1,0000.0,0007.52,0003.20,0002.45
2024-05-21 20:07:00,SystemResetWarning,0824.4,5.00,000.00,028.3,027.5,000.0,036.7,030.1,018.0,0000.0,0008.00,0003.25,0002.49
2024-05-21 20:08:00,SystemResetWarning,0824.4,5.00,000.00,028.3,027.5,000.0,036.7,030.0,018.4,0000.0,0007.99,0003.25,0002.50
2024-05-21 20:09:00,SystemResetWarning,0824.4,5.00,000.00,028.3,027.5,000.0,036.7,030.0,018.9,0000.0,0008.17,0003.28,0002.53
2024-05-21 20:10:00,SystemResetWarning,0824.3,4.99,000.00,028.3,027.5,000.0,036.7,030.0,017.9,0000.0,0008.32,0003.32,0002.55
2024-05-21 20:11:00,SystemResetWarning,0824.3,5.01,000.00,028.3,027.5,000.0,036.7,030.0,018.4,0000.0,0008.34,0003.36,0002.57
2024-05-21 20:12:00,SystemResetWarning,0824.1,4.99,000.00,028.3,027.5,000.0,036.7,030.0,019.7,0000.0,0008.22,0003.36,0002.58
2024-05-21 20:13:00,SystemResetWarning,0824.1,5.00,000.00,028.2,027.5,000.0,036.7,030.0,020.2,0000.0,0008.86,0003.37,0002.58
2024-05-21 20:14:00,SystemResetWarning,0824.2,5.00,000.00,028.2,027.4,000.0,036.7,029.9,020.0,0000.0,0009.34,0003.37,0002.58
2024-05-21 20:15:00,SystemResetWarning,0824.2,5.01,000.00,028.2,027.4,000.0,036.7,029.8,020.1,0000.0,0009.68,0003.36,0002.60
2024-05-21 20:16:00,SystemResetWarning,0824.1,5.01,000.00,028.1,027.3,000.0,036.7,029.7,019.7,0000.0,0009.46,0003.33,0002.59
2024-05-21 20:17:00,SystemResetWarning,0824.2,4.99,000.00,028.1,027.2,000.0,036.7,029.7,019.8,0000.0,0009.21,0003.31,0002.59
2024-05-21 20:18:00,SystemResetWarning,0824.3,5.00,000.00,028.1,027.2,000.0,036.7,029.7,019.6,0000.0,0008.68,0003.30,0002.59
2024-05-21 20:19:00,SystemResetWarning,0824.3,4.99,000.00,028.0,027.2,000.0,036.7,029.7,019.9,0000.0,0008.63,0003.28,0002.60
2024-05-21 20:20:00,SystemResetWarning,0824.4,5.01,000.00,028.0,027.1,000.0,036.6,029.7,020.2,0000.0,0008.51,0003.27,0002.60
2024-05-21 20:21:00,SystemResetWarning,0824.4,5.00,000.00,028.0,027.1,000.0,036.6,029.7,020.1,0000.0,0008.49,0003.25,0002.61
2024-05-21 20:22:00,SystemResetWarning,0824.3,4.99,000.00,028.0,027.1,000.0,036.6,029.7,019.8,0000.0,0008.84,0003.25,0002.60
2024-05-21 20:23:00,SystemResetWarning,0824.4,4.99,000.00,028.0,027.1,000.0,036.6,029.6,019.8,0000.0,0008.53,0003.25,0002.61
2024-05-21 20:24:00,SystemResetWarning,0824.4,5.00,000.00,027.9,027.1,000.0,036.6,029.6,020.6,0000.0,0008.02,0003.22,0002.62
2024-05-21 20:25:00,SystemResetWarning,0824.4,5.01,000.00,027.9,027.1,000.0,036.6,029.6,019.1,0000.0,0007.52,0003.23,0002.61
2024-05-21 20:26:00,SystemResetWarning,0824.3,5.01,000.00,027.9,027.1,000.0,036.6,029.6,019.0,0000.0,0006.79,0003.21,0002.61
2024-05-21 20:27:00,SystemResetWarning,0824.3,5.00,000.00,027.9,027.1,000.0,036.5,029.5,018.9,0000.0,0006.61,0003.20,0002.62
2024-05-21 20:28:00,SystemResetWarning,0824.4,4.99,000.00,027.9,027.0,000.0,036.5,029.5,019.7,0000.0,0006.94,0003.22,0002.62
2024-05-21 20:29:00,SystemResetWarning,0824.4,5.00,000.00,027.9,027.0,000.0,036.5,029.5,019.5,0000.0,0007.04,0003.22,0002.62
2024-05-21 20:30:00,SystemResetWarning,0824.4,5.00,000.00,027.9,027.0,000.0,036.5,029.5,019.6,0000.0,0007.09,0003.24,0002.62
2024-05-21 20:31:00,SystemResetWarning,0824.4,5.00,000.00,027.8,027.0,000.0,036.5,029.5,019.1,0000.0,0007.66,0003.24,0002.61
2024-05-21 20:32:00,SystemResetWarning,0824.4,4.99,000.00,027.8,027.0,000.0,036.5,029.5,019.5,0000.0,0007.91,0003.26,0002.61
2024-05-21 20:33:00,SystemResetWarning,0824.4,4.99,000.00,027.8,027.1,000.0,036.4,029.6,019.3,0000.0,0007.50,0003.26,0002.61
2024-05-21 20:34:00,SystemResetWarning,0824.4,5.02,000.00,027.9,027.1,000.0,036.4,029.6,019.7,0000.0,0007.45,0003.24,0002.61
2024-05-21 20:35:00,SystemResetWarning,0824.4,5.00,000.00,027.9,027.1,000.0,036.4,029.6,019.7,0000.0,0007.36,0003.25,0002.61
2024-05-21 20:36:00,SystemResetWarning,0824.4,4.99,000.00,027.9,027.1,000.0,036.4,029.6,019.8,0000.0,0007.08,0003.26,0002.63
2024-05-21 20:37:00,SystemResetWarning,0824.4,5.01,000.00,027.9,027.2,000.0,036.4,029.7,020.2,0000.0,0007.41,0003.31,0002.65
2024-05-21 20:38:00,SystemResetWarning,0824.4,5.01,000.00,027.9,027.2,000.0,036.4,029.7,020.1,0000.0,0007.45,0003.33,0002.64
2024-05-21 20:39:00,SystemResetWarning,0824.4,5.00,000.00,027.9,027.2,000.0,036.4,029.8,021.2,0000.0,0007.36,0003.31,0002.64
2024-05-21 20:40:00,SystemResetWarning,0824.5,4.99,000.00,028.0,027.2,000.0,036.4,029.8,020.8,0000.0,0007.38,0003.34,0002.68
2024-05-21 20:41:00,SystemResetWarning,0824.5,4.99,000.00,028.0,027.3,000.0,036.4,029.8,021.6,0000.0,0007.41,0003.37,0002.77
2024-05-21 20:42:00,SystemResetWarning,0824.5,5.00,000.00,028.0,027.3,000.0,036.4,029.8,022.0,0000.0,0006.98,0003.43,0002.85
2024-05-21 20:43:00,SystemResetWarning,0824.7,5.02,000.00,028.0,027.3,000.0,036.4,029.8,022.0,0000.0,0006.35,0003.45,0002.93
2024-05-21 20:44:00,SystemResetWarning,0824.7,5.01,000.00,028.0,027.3,000.0,036.4,029.8,020.9,0000.0,0006.84,0003.50,0003.02
2024-05-21 20:45:00,SystemResetWarning,0824.7,4.99,000.00,028.0,027.3,000.0,036.4,029.8,020.8,0000.0,0007.46,0003.59,0003.10
2024-05-21 20:46:00,SystemResetWarning,0824.7,5.00,000.00,028.1,027.4,000.0,036.4,029.9,021.0,0000.0,0007.44,0003.62,0003.13
2024-05-21 20:47:00,SystemResetWarning,0824.7,5.00,000.00,028.1,027.4,000.0,036.4,029.9,021.0,0000.0,0007.48,0003.66,0003.15
2024-05-21 20:48:00,SystemResetWarning,0824.6,5.02,000.00,028.1,027.4,000.0,036.4,029.9,021.8,0000.0,0007.53,0003.66,0003.17
2024-05-21 20:49:00,SystemResetWarning,0824.6,5.00,000.00,028.1,027.4,000.0,036.4,029.9,021.6,0000.0,0007.94,0003.67,0003.18
2024-05-21 20:50:00,SystemResetWarning,0824.7,4.99,000.00,028.1,027.5,000.0,036.4,030.0,021.3,0000.0,0008.23,0003.69,0003.20
2024-05-21 20:51:00,SystemResetWarning,0824.7,5.00,000.00,028.2,027.5,000.0,036.5,030.0,021.3,0000.0,0008.15,0003.69,0003.22
2024-05-21 20:52:00,SystemResetWarning,0824.7,5.01,000.00,028.2,027.5,000.0,036.5,030.0,020.6,0000.0,0008.20,0003.70,0003.21
2024-05-21 20:53:00,SystemResetWarning,0824.7,5.00,000.00,028.2,027.5,000.0,036.5,030.0,020.7,0000.0,0008.11,0003.67,0003.20
2024-05-21 20:54:00,SystemResetWarning,0824.8,5.00,000.00,028.2,027.5,000.0,036.5,030.0,020.4,0000.0,0008.01,0003.65,0003.19
2024-05-21 20:55:00,SystemResetWarning,0824.7,4.99,000.00,028.2,027.5,000.0,036.5,030.0,020.5,0000.0,0007.82,0003.64,0003.21
2024-05-21 20:56:00,SystemResetWarning,0824.7,4.99,000.00,028.2,027.6,000.0,036.5,030.0,020.1,0000.0,0007.66,0003.64,0003.24
2024-05-21 20:57:00,SystemResetWarning,0824.8,4.99,000.00,028.2,027.6,000.0,036.5,030.0,020.1,0000.0,0007.99,0003.70,0003.30
2024-05-21 20:58:00,SystemResetWarning,0824.8,5.01,000.00,028.3,027.6,000.0,036.5,030.1,020.1,0000.0,0008.08,0003.77,0003.37
2024-05-21 20:59:00,SystemResetWarning,0824.9,5.01,000.00,028.3,027.6,000.0,036.6,030.1,020.1,0000.0,0007.92,0003.81,0003.45
